Theta_e
313 316 318 319 317 315 315 314 315 315 315 316 316 317 317 316 316 315 317 318 315 315 317 317 315 314 314 314 313 312 313 312 311 311 312 314 315 315 315 315 315 315 316 317 316 315 315 315 314 314 313 313 312 312 311 311 310 309 309 309 308 308 308 307 307 306 306 305 305 304 304 304 304 304 304 304 303 302 302 301 299 299 299 298 298 298
314 316 317 317 316 315 316 315 314 314 314 315 315 316 316 316 317 316 317 318 315 315 317 316 316 315 314 314 313 312 313 313 312 311 312 312 313 314 314 315 315 316 316 316 316 315 315 315 314 314 313 313 312 311 311 310 310 309 309 309 309 308 308 308 307 307 307 307 307 306 306 306 306 305 305 305 304 303 302 301 300 299 298 298 298 298
316 316 315 314 314 315 315 315 315 315 315 315 316 316 317 317 317 316 317 319 315 315 319 319 316 314 314 314 313 312 313 313 314 314 314 314 314 314 315 315 315 316 316 315 315 315 315 315 314 314 313 312 312 312 311 311 310 309 309 309 309 308 308 308 307 307 307 307 306 306 306 306 305 305 304 304 303 302 301 301 299 298 298 298 298 298
316 316 315 312 314 315 315 315 316 316 315 316 316 317 317 317 317 316 317 319 316 316 321 320 316 314 314 314 314 313 312 313 314 315 315 315 315 315 315 316 316 315 315 315 315 315 315 315 314 314 313 312 312 311 311 310 310 309 309 309 309 308 308 308 307 307 307 306 305 304 304 304 303 303 303 302 301 301 300 299 299 298 298 298 298 298
315 316 315 314 315 316 316 315 316 316 315 316 317 317 317 317 318 316 317 319 318 318 318 317 316 315 315 315 315 315 314 314 314 314 315 315 315 316 315 316 316 316 315 315 315 315 315 315 315 314 313 312 312 311 311 310 310 309 309 309 308 308 308 308 307 307 306 305 304 303 303 302 301 301 300 300 300 300 299 299 299 299 298 297 297 297
313 314 316 317 317 317 317 316 317 318 316 316 318 319 318 318 318 317 317 317 319 322 319 316 319 319 319 319 316 316 316 315 314 313 314 314 315 316 315 316 317 317 316 315 315 315 315 315 315 314 313 312 312 311 311 310 310 309 309 309 308 308 308 307 307 306 305 305 305 304 304 303 303 302 302 302 302 302 301 301 301 299 298 297 297 297
314 313 316 318 319 319 319 318 320 320 316 316 321 324 320 319 319 319 319 318 322 326 320 317 321 321 320 321 318 317 318 318 316 316 314 312 314 316 317 317 317 317 315 315 315 315 316 315 315 314 313 313 313 312 311 310 310 309 309 308 308 308 308 307 307 306 306 305 305 305 305 305 305 305 306 305 304 303 302 301 300 300 299 297 297 297
315 314 318 319 318 320 319 318 321 321 317 317 324 327 323 321 321 321 322 323 324 324 319 318 321 320 319 319 319 319 319 319 317 317 316 313 313 316 317 317 317 317 315 314 315 315 316 316 315 315 314 314 313 312 311 310 309 309 308 308 308 308 308 307 307 307 307 306 306 306 306 306 306 305 305 305 303 303 301 301 300 299 298 297 297 296
318 318 321 321 318 319 318 317 321 321 319 319 322 325 324 322 323 323 322 323 324 321 319 320 319 319 319 317 317 317 315 317 316 316 316 313 313 316 317 317 316 316 315 314 315 315 316 316 315 315 315 314 313 311 311 310 310 309 308 308 308 308 308 307 307 307 306 306 307 307 306 307 306 305 304 303 302 301 301 300 300 298 297 297 297 296
318 317 316 320 321 318 320 323 324 323 320 318 319 322 325 325 323 320 319 320 322 320 319 320 319 318 318 315 317 316 315 317 315 315 316 313 313 316 316 316 316 316 315 314 314 315 315 315 316 315 314 313 312 311 311 310 309 309 308 308 308 308 308 308 308 307 307 306 306 307 308 308 307 305 304 302 301 300 300 299 299 298 298 297 296 296
313 311 311 317 318 316 322 321 315 317 318 315 317 320 325 328 325 323 323 321 320 318 318 321 320 317 318 318 318 318 317 317 316 315 315 313 312 315 316 316 317 317 316 315 314 315 316 315 315 315 314 313 312 311 310 310 309 309 309 308 308 308 308 308 308 308 307 306 307 308 309 308 307 306 304 303 302 301 300 299 298 298 297 297 296 296
312 312 314 316 313 313 319 316 311 313 314 315 320 322 324 328 327 324 322 319 318 318 318 321 320 317 317 318 317 316 316 316 316 316 317 316 313 313 315 317 316 317 316 315 315 315 316 315 315 314 314 313 312 311 311 310 310 309 309 309 308 308 308 308 309 309 308 307 307 309 309 308 307 306 305 304 303 302 301 300 299 298 297 296 296 295
315 314 315 315 312 313 318 318 317 317 315 316 321 321 320 323 322 320 321 320 319 320 319 318 318 317 316 316 316 316 317 317 316 315 315 317 314 312 315 317 316 317 316 315 315 316 316 315 315 314 314 313 313 312 312 311 310 310 309 309 309 309 310 310 310 310 309 308 308 309 309 309 307 306 306 305 303 302 302 301 299 298 297 297 296 296
321 318 314 314 314 314 316 317 318 319 317 315 318 319 319 320 319 320 324 323 318 320 321 316 316 318 318 319 319 317 317 317 315 313 313 314 314 314 316 317 316 316 316 315 315 316 316 316 315 314 314 314 314 314 313 312 312 311 310 310 310 311 310 310 311 310 310 309 309 309 309 309 308 307 307 306 304 303 302 300 299 299 298 297 297 296
322 319 316 317 317 315 315 314 316 320 318 314 317 319 318 322 324 322 324 322 317 324 325 316 317 322 319 320 323 318 315 313 311 313 314 314 316 316 316 317 316 315 315 315 315 315 316 316 314 314 314 314 315 315 314 314 313 313 312 313 313 312 311 311 311 311 310 310 309 309 308 308 308 307 306 306 304 303 302 301 300 299 298 297 297 296
318 319 318 316 315 315 315 314 315 321 321 315 318 319 316 320 323 318 320 320 316 321 321 316 320 324 318 316 319 317 315 314 311 312 312 312 314 314 313 315 315 314 316 315 315 316 316 315 314 313 313 314 315 315 315 315 315 315 315 315 314 314 313 312 312 311 311 310 310 309 308 308 307 307 306 305 304 304 303 301 300 299 298 297 296 295
316 321 320 313 312 313 312 312 313 316 319 317 317 317 316 318 320 317 321 322 316 316 318 317 319 320 317 316 316 315 316 315 313 312 311 310 312 312 312 314 314 315 316 316 316 316 316 315 314 313 313 314 315 315 315 315 315 315 315 315 315 314 313 312 312 312 311 310 310 310 309 308 307 307 307 306 305 304 302 301 299 298 297 296 295 295
317 318 319 315 315 312 305 307 312 311 314 318 319 318 316 317 319 320 322 323 319 318 318 317 316 315 315 316 317 316 316 315 314 314 313 311 311 310 311 313 314 316 316 316 316 316 316 315 313 313 313 314 314 315 314 314 314 314 314 314 314 314 313 313 313 312 311 310 310 310 310 308 307 307 307 306 304 303 302 301 299 298 297 296 295 294
318 315 317 315 316 314 307 310 316 311 309 315 317 316 317 320 322 321 320 320 319 318 317 316 315 314 313 314 314 315 316 317 316 314 313 313 311 310 311 312 314 316 317 317 316 316 315 314 313 313 313 313 314 314 314 315 314 313 313 313 313 313 313 312 312 312 311 310 310 310 310 309 307 306 306 305 304 303 302 301 299 298 297 296 294 294
316 316 317 314 312 313 311 313 320 317 312 312 314 315 315 317 321 322 319 319 318 317 316 316 315 314 315 316 314 314 316 317 315 314 314 313 311 311 312 312 313 314 315 316 315 316 315 314 314 314 313 313 313 313 314 314 313 312 313 313 313 312 312 311 311 311 311 310 310 310 309 309 307 306 305 305 304 303 302 301 299 298 297 296 295 294
315 315 315 314 312 313 313 314 319 321 317 315 316 317 315 314 318 319 316 316 317 316 316 316 316 315 317 319 317 317 318 316 315 315 315 313 311 311 312 313 314 314 314 315 315 315 315 314 315 314 313 312 312 313 313 313 312 312 312 312 312 312 312 311 311 311 310 309 309 309 309 309 308 306 304 304 303 303 302 301 299 298 297 295 295 294
317 317 316 316 315 314 315 316 317 318 318 317 316 317 316 315 316 316 315 316 317 315 315 316 315 315 316 319 320 320 322 321 317 316 315 312 310 311 313 314 315 315 315 315 314 314 315 314 314 313 313 312 312 312 312 312 312 311 311 311 311 312 312 311 311 311 310 309 308 308 308 307 306 305 303 303 303 303 302 301 300 298 296 295 294 294
317 319 317 316 317 318 318 316 315 315 314 315 316 316 317 315 314 315 315 316 315 315 315 315 315 316 315 317 319 319 320 319 315 313 314 312 311 313 314 313 314 314 314 315 314 314 314 314 314 313 312 312 312 312 312 311 311 311 311 311 311 311 311 311 311 310 309 308 307 307 307 306 305 304 303 302 302 302 302 301 299 298 296 295 294 294
315 318 317 315 318 322 321 317 314 312 310 312 314 315 315 314 313 314 314 315 315 315 315 315 315 316 315 316 318 318 316 314 310 310 312 311 311 314 313 312 313 313 313 314 314 314 314 313 314 313 312 312 312 312 312 311 311 311 311 311 311 311 311 311 310 309 308 307 307 307 306 305 304 304 303 302 302 302 301 300 299 298 296 295 294 293
315 317 318 316 317 319 320 318 315 312 310 312 314 313 313 314 313 313 314 315 315 314 314 315 314 315 314 316 318 317 315 314 311 310 310 309 310 312 312 313 313 313 313 313 313 313 313 313 313 313 313 313 312 312 312 311 311 311 311 311 311 311 311 310 310 309 308 307 307 306 305 305 304 304 303 303 303 302 301 300 299 297 296 295 294 293
314 316 317 317 317 317 317 317 318 316 312 312 314 314 312 314 314 313 313 314 314 314 314 314 314 314 313 313 314 313 313 313 312 309 310 310 311 311 312 313 313 313 313 313 313 313 313 313 313 312 312 312 312 312 312 312 311 311 311 311 310 311 310 310 309 309 308 307 306 306 305 305 304 304 304 303 302 301 300 299 298 297 296 295 294 293
314 315 315 315 316 317 316 316 317 318 314 312 314 314 312 313 313 313 314 314 314 314 314 314 314 314 314 313 313 312 312 312 311 311 311 311 311 311 311 312 313 313 313 313 313 313 313 313 313 313 312 312 312 312 311 311 311 311 311 311 310 310 310 310 309 308 308 307 306 306 305 305 305 304 303 302 301 300 299 298 298 297 296 295 294 293
312 312 313 314 314 315 315 315 315 315 313 313 314 313 312 313 312 313 314 313 314 314 314 314 314 314 314 313 312 312 312 312 312 312 311 310 311 312 311 312 312 312 312 312 312 312 312 312 312 312 312 312 312 312 311 311 311 311 311 311 310 310 310 309 309 308 308 307 306 306 306 305 305 304 303 301 300 300 299 298 297 296 295 294 294 293
311 311 312 313 312 313 313 313 313 314 313 313 313 312 312 312 312 312 312 312 312 313 313 312 313 313 313 311 312 312 311 312 311 311 311 311 311 311 311 311 311 311 311 311 311 311 311 312 312 312 312 312 311 311 311 311 311 311 310 310 310 310 310 309 308 308 308 307 307 307 306 305 304 303 302 300 299 299 298 297 296 295 294 293 293 292
311 312 311 312 312 312 312 312 313 313 312 312 312 312 312 311 311 311 311 311 311 311 311 311 312 312 311 311 311 311 311 311 311 311 311 311 311 311 311 310 310 311 311 310 311 311 311 312 312 311 311 311 311 311 311 311 311 311 310 310 310 310 310 309 308 308 307 307 307 307 306 305 303 302 301 300 299 298 297 296 295 294 294 293 293 292
310 311 312 311 311 311 312 312 312 312 312 312 312 312 311 311 312 311 311 310 311 310 310 310 311 311 310 311 311 311 311 311 311 311 311 311 311 311 310 310 310 310 311 311 311 311 311 311 311 311 311 311 311 311 311 311 311 310 310 310 310 310 310 309 309 308 308 307 307 306 305 304 303 302 301 300 299 298 297 296 295 294 293 293 292 291
308 309 310 311 311 311 312 312 311 311 311 311 311 311 311 311 311 311 311 311 311 311 311 311 311 311 310 310 311 310 310 310 311 311 310 311 311 311 310 310 310 310 311 311 311 311 311 311 311 311 311 311 311 311 311 311 311 311 311 310 310 310 310 309 309 308 307 307 306 305 304 303 302 301 301 300 299 297 296 295 294 293 293 292 292 291
308 308 309 311 312 312 312 312 311 311 311 311 311 311 311 311 311 311 311 311 311 311 311 312 312 311 310 310 310 310 310 310 311 311 311 311 311 311 311 311 310 311 311 311 311 311 311 310 311 311 311 311 311 311 311 311 311 311 311 311 310 310 309 309 309 308 307 306 305 304 304 303 302 301 301 299 298 297 295 294 294 293 293 292 291 291
309 308 309 311 312 312 313 313 312 311 312 314 314 312 311 311 312 312 311 311 311 311 311 311 311 311 311 311 311 311 311 311 311 311 311 311 311 311 311 311 311 311 310 310 310 310 310 311 311 311 311 311 311 311 311 311 311 311 310 310 310 309 309 309 308 307 307 305 305 304 303 302 302 301 300 299 297 296 295 294 293 293 292 291 291 290
310 309 309 310 312 312 313 314 314 314 314 315 315 313 311 311 311 312 312 312 311 311 311 311 311 310 310 310 311 311 311 311 312 311 311 311 311 311 310 310 310 310 310 310 310 310 310 310 310 311 311 311 311 311 311 311 310 310 310 310 310 309 309 308 308 307 306 305 305 304 303 302 301 300 299 297 296 295 294 293 292 291 291 290 290 289
310 310 310 311 311 312 313 314 315 316 314 312 313 312 311 311 311 312 313 312 311 311 311 311 311 310 310 311 311 311 311 311 311 311 311 310 309 309 308 308 308 308 308 308 309 309 310 310 310 310 311 311 312 311 310 310 310 310 310 310 310 309 309 308 307 307 306 305 304 304 303 302 301 300 298 297 295 294 293 292 291 291 290 290 289 289
310 310 311 311 312 313 313 313 314 315 313 312 313 313 311 311 312 312 312 312 311 310 311 311 311 310 310 310 310 309 310 310 310 310 309 307 306 306 306 306 306 306 307 307 307 308 308 309 309 309 310 310 310 310 310 310 310 310 310 310 309 309 309 308 308 307 306 306 305 304 304 303 301 300 298 297 295 294 293 292 291 291 290 290 289 289
310 310 311 312 312 313 313 313 313 314 314 314 315 314 311 311 311 311 312 312 309 307 307 308 308 307 307 306 305 306 308 310 310 309 306 303 303 303 303 303 303 303 304 305 306 307 307 307 307 308 308 309 309 309 309 309 309 309 309 309 309 309 309 308 308 307 307 307 307 306 305 304 302 301 299 298 296 295 294 292 291 291 290 290 289 289
309 309 310 312 313 312 313 314 313 314 314 312 312 311 310 310 310 310 312 311 305 301 301 302 301 300 300 300 301 302 306 309 308 305 302 300 300 299 299 300 300 300 301 302 302 303 305 306 307 307 307 307 307 307 307 308 308 308 308 308 308 308 308 309 309 309 309 308 308 306 305 304 302 301 300 298 297 295 294 293 292 291 290 289 288 288
308 309 309 311 312 312 313 313 313 314 311 305 303 305 306 307 309 311 314 310 303 299 299 298 297 297 297 297 298 299 300 302 301 299 298 297 297 297 296 297 297 298 299 299 299 299 300 302 304 304 305 306 306 306 306 306 306 306 307 307 307 307 308 308 309 308 308 307 306 305 304 303 302 301 300 298 297 295 293 292 291 290 289 288 287 286
305 307 309 310 310 311 312 312 312 313 306 298 298 300 301 306 312 312 309 305 300 297 297 296 295 296 295 295 295 295 296 297 296 295 295 295 295 295 295 296 296 296 297 297 297 297 297 298 299 300 300 302 304 305 306 306 305 305 305 305 305 306 306 306 306 306 305 304 304 303 303 302 301 300 299 297 295 293 292 291 290 290 289 288 286 285
301 304 306 307 308 310 311 310 312 312 303 296 297 299 299 304 308 304 300 299 298 296 295 295 294 294 294 294 294 294 294 294 294 294 294 294 295 295 295 295 296 296 297 297 297 297 297 297 297 298 299 300 301 302 304 305 305 304 304 304 305 305 304 304 304 303 303 302 301 301 300 300 299 297 296 295 293 292 291 290 289 289 288 287 286 285
299 301 301 302 305 306 306 308 311 309 301 296 297 297 297 298 298 297 297 298 297 295 294 294 293 293 293 293 293 293 294 293 294 294 294 294 295 295 295 296 296 297 297 297 298 297 297 297 297 298 300 301 301 301 302 304 305 304 304 304 304 304 303 303 303 302 302 301 300 299 298 298 297 296 294 293 292 290 290 289 288 287 287 287 286 285
299 299 297 299 302 301 300 303 305 301 298 297 297 296 296 295 295 296 297 296 295 293 293 293 292 292 293 293 293 293 293 293 294 294 294 295 295 296 296 296 297 297 297 297 298 298 298 298 298 299 300 302 303 303 302 302 303 304 304 304 303 303 303 303 302 301 301 300 299 298 297 296 295 294 293 292 291 289 288 288 287 287 286 286 285 284
297 296 295 297 299 298 297 299 298 296 296 297 296 295 294 294 296 297 295 293 293 293 292 292 292 293 293 293 293 293 293 293 294 294 294 295 295 295 296 296 295 296 296 296 296 296 296 297 298 298 300 301 302 304 303 302 302 302 302 302 303 303 303 302 302 302 301 301 300 299 298 296 295 294 293 292 290 289 288 287 287 286 286 285 284 283
294 294 294 295 296 295 295 295 295 294 295 295 294 293 294 295 296 295 293 292 293 293 292 293 293 293 293 293 292 292 292 292 293 293 293 293 294 294 294 293 293 294 294 294 294 294 294 294 295 295 297 297 299 301 302 302 301 301 301 301 303 303 303 302 302 302 301 300 299 298 298 297 295 294 292 291 290 288 287 287 287 286 285 284 283 283
293 293 294 293 293 293 292 293 293 294 293 293 293 293 295 296 295 293 292 292 292 292 292 292 292 292 291 291 291 291 291 291 291 292 292 292 292 292 292 292 292 292 292 292 292 293 293 293 293 294 294 295 295 297 299 300 300 300 300 300 301 302 303 303 303 302 301 300 300 299 298 297 296 294 292 291 290 288 287 286 286 286 285 284 283 283
292 292 292 291 291 291 291 292 293 292 292 292 291 291 293 294 292 292 292 292 291 290 290 290 290 289 289 289 289 289 289 290 290 290 290 290 290 290 290 291 291 291 291 290 291 291 291 292 293 294 294 294 294 294 296 297 298 299 300 300 300 301 301 302 302 301 301 300 299 299 298 297 296 295 294 292 291 289 287 286 285 285 285 285 284 284
291 291 291 291 291 291 291 291 292 292 291 290 290 290 291 291 291 291 291 290 289 289 289 288 288 288 288 288 288 288 288 288 288 288 288 288 289 289 289 289 289 289 289 289 289 290 290 291 292 292 293 293 292 293 294 295 296 297 298 299 299 300 300 301 301 301 300 300 298 297 296 295 294 293 293 291 290 288 286 285 285 284 284 283 284 284
290 290 290 290 290 290 290 291 291 290 289 289 289 290 290 290 290 290 289 288 288 288 287 286 287 287 287 287 287 286 286 286 286 286 286 286 286 287 287 287 287 287 288 288 288 289 289 289 290 290 291 291 292 293 294 295 295 296 297 298 299 300 300 300 300 300 299 299 298 297 295 294 293 292 291 290 289 287 286 284 283 283 282 282 283 283
290 290 290 290 290 290 290 291 290 289 288 289 289 289 288 288 288 288 287 287 286 286 286 285 285 286 286 286 286 286 285 284 284 284 284 284 285 285 285 285 285 286 286 287 287 287 288 288 289 289 290 291 292 293 294 294 295 296 296 297 298 299 299 299 299 299 298 298 297 297 295 294 292 291 290 288 288 287 285 283 281 280 280 281 282 283
Wind_Speed
12 6 3 7 10 11 10 12 16 14 9 9 9 8 9 8 10 12 11 7 8 6 7 13 15 15 18 18 17 26 27 20 20 22 26 31 33 37 38 41 44 46 50 51 47 44 40 38 37 36 37 37 38 39 40 42 42 43 43 42 40 39 38 39 39 38 38 40 41 42 43 42 41 40 40 39 38 37 35 35 34 33 32 30 29 28
9 7 8 14 15 12 10 12 13 11 10 11 10 9 9 8 12 13 10 7 6 5 8 11 14 16 17 17 16 19 15 15 21 20 24 31 34 37 39 43 47 48 50 48 45 43 38 35 35 35 37 37 39 40 41 42 43 43 42 41 40 39 40 40 40 39 38 38 39 39 39 39 40 40 40 40 39 38 36 36 36 35 33 32 31 29
5 7 12 16 13 9 8 8 9 10 11 10 8 7 8 6 10 11 8 6 4 5 7 8 11 13 14 16 15 14 12 18 30 27 28 33 31 33 38 43 47 46 46 44 42 40 36 34 34 34 37 38 38 39 40 42 42 42 42 41 41 41 41 41 40 39 38 37 37 37 37 37 38 39 39 39 39 38 37 38 37 36 35 33 32 31
6 7 13 15 10 10 11 9 7 9 8 8 8 7 8 7 7 9 6 3 3 4 5 6 9 9 9 12 13 17 21 24 32 34 35 37 34 37 43 47 48 45 43 42 39 36 33 32 33 35 37 37 38 39 41 42 42 42 42 42 42 42 42 41 40 38 37 37 37 37 38 38 38 38 38 39 39 39 39 39 38 37 36 35 34 32
12 7 11 14 11 12 13 11 8 7 8 10 10 8 10 10 11 12 7 4 3 4 4 4 9 8 8 14 14 16 20 21 27 31 33 39 41 43 46 48 50 49 45 41 37 33 31 32 34 35 36 36 38 40 41 42 42 41 41 41 42 42 41 40 39 38 38 38 38 39 40 40 40 40 40 41 42 43 42 41 40 39 38 36 35 34
12 8 10 10 9 12 12 10 8 7 9 11 8 11 14 14 13 13 9 6 5 6 4 2 7 8 8 14 15 10 9 11 16 20 24 34 41 41 43 46 48 48 44 39 35 32 31 33 33 34 35 36 38 39 39 39 39 39 39 40 40 40 40 39 38 38 38 38 39 40 41 42 43 44 45 45 45 45 43 42 41 40 39 38 37 36
7 10 12 10 10 12 10 8 8 11 9 10 6 11 14 12 11 11 7 4 3 5 4 3 3 8 5 8 10 7 7 10 11 11 16 25 32 36 40 43 44 42 38 33 31 30 31 32 33 34 35 36 37 36 36 37 37 38 38 38 38 39 39 38 38 38 38 38 39 39 40 41 42 44 44 44 44 44 42 42 41 40 40 39 38 37
5 7 9 12 12 9 8 9 8 11 8 7 4 8 10 9 9 8 6 5 4 4 4 2 3 7 11 7 9 11 11 12 12 11 12 18 27 35 40 40 40 39 34 28 27 28 29 32 33 33 33 34 34 33 34 36 37 38 37 37 37 37 37 37 37 37 37 37 36 37 38 39 41 43 43 43 43 42 42 42 41 41 40 40 39 38
2 4 8 11 9 7 8 8 8 11 7 6 2 4 5 5 5 3 3 5 2 4 4 4 5 4 14 8 8 11 11 11 13 14 13 15 25 36 40 39 38 38 33 27 26 26 26 29 30 30 30 30 31 32 33 34 34 36 36 36 37 37 36 36 36 37 37 36 34 34 36 37 39 41 43 43 43 43 43 43 42 42 41 40 39 38
0 3 5 7 6 7 6 2 5 9 7 3 4 3 4 3 2 4 1 1 2 4 6 7 7 3 14 11 5 5 7 10 11 12 13 15 25 36 38 37 37 36 33 29 27 26 24 24 25 26 27 28 29 30 31 32 33 35 35 36 36 36 36 35 35 36 37 36 35 33 33 34 36 40 42 43 44 44 44 44 43 43 42 41 40 39
3 2 2 4 6 5 4 3 1 3 3 2 5 4 6 5 5 4 1 4 2 8 6 10 12 8 10 9 4 5 5 11 10 8 10 12 21 32 36 36 35 34 33 31 28 25 23 22 23 25 26 27 28 29 31 32 34 35 35 36 36 36 36 35 34 35 35 36 35 32 31 32 33 37 41 42 44 45 45 45 45 44 43 42 41 40
5 1 2 4 5 5 6 3 2 3 2 3 4 4 4 5 4 5 4 4 2 9 6 13 15 12 10 6 2 2 3 9 10 9 10 10 16 29 35 35 32 31 32 31 27 24 23 23 25 26 27 27 27 29 31 33 34 35 35 36 36 36 36 35 35 35 36 37 35 31 31 32 32 34 38 41 43 44 45 46 46 45 44 43 42 41
6 7 6 3 4 8 6 2 3 5 2 4 4 4 1 4 3 3 3 0 4 8 6 10 10 8 13 7 3 7 5 6 9 9 13 14 17 28 33 31 30 30 31 30 27 24 24 24 25 25 26 27 28 30 31 32 33 34 35 36 36 36 35 35 35 35 36 37 35 32 31 32 33 33 35 39 42 43 44 45 46 46 46 45 44 43
4 6 5 4 3 9 10 5 4 3 4 7 5 6 5 3 1 3 4 3 5 8 6 6 6 5 8 4 8 14 13 13 14 16 23 23 23 31 32 28 29 29 28 27 27 26 25 24 23 23 24 26 28 29 30 31 32 33 34 36 36 35 35 36 36 36 37 37 35 35 33 33 34 34 34 37 40 41 43 45 46 46 46 46 45 44
3 8 6 8 3 10 14 13 11 4 4 7 6 6 4 4 4 4 5 6 6 7 6 3 4 4 3 3 9 12 13 15 18 24 30 30 31 32 31 30 29 26 23 26 28 28 26 23 22 22 23 26 27 28 30 30 31 32 33 34 35 35 36 37 37 37 37 36 36 37 37 36 36 35 35 37 39 41 42 43 45 46 46 45 44 43
5 10 7 6 3 10 12 11 10 6 1 3 5 5 3 5 6 5 5 5 2 4 6 3 4 6 4 6 8 7 9 9 13 21 22 25 31 30 30 35 30 22 21 25 28 28 27 23 22 22 23 25 26 27 29 30 30 31 31 33 35 35 36 37 37 37 36 37 38 38 39 39 38 38 39 38 39 40 41 42 44 44 44 44 42 41
5 7 3 2 2 4 4 3 4 5 2 2 4 4 5 4 6 4 6 3 1 5 8 3 5 6 5 7 8 7 10 8 9 13 12 19 29 27 28 35 29 20 21 25 27 28 27 25 22 21 22 24 25 25 28 29 29 28 30 33 35 36 38 38 37 37 37 38 39 39 40 41 40 40 40 39 38 39 40 42 43 43 43 42 41 40
7 6 3 4 2 3 0 2 1 1 3 5 3 6 3 3 2 3 1 3 2 6 7 5 8 8 7 8 4 1 5 8 9 10 10 17 24 22 28 34 28 23 23 24 26 27 26 25 22 20 21 23 22 22 26 28 28 27 30 34 36 37 38 37 36 37 38 39 39 39 41 43 42 41 41 40 40 40 41 41 42 43 43 42 41 40
5 6 5 2 1 3 3 2 1 3 3 5 3 2 3 1 2 2 3 3 5 8 8 11 14 10 7 8 6 4 7 10 12 13 13 15 15 17 26 31 26 23 24 24 26 27 27 25 22 20 21 22 20 23 26 26 26 28 31 35 37 37 37 37 37 38 39 39 38 40 43 44 44 43 43 43 42 41 41 42 42 43 43 42 41 41
3 5 5 1 1 3 3 1 3 2 1 2 2 3 1 3 4 3 3 3 4 8 9 12 14 11 7 6 6 9 10 11 12 12 12 12 14 20 27 27 25 23 25 28 29 29 29 27 23 22 22 20 20 23 25 24 24 26 32 37 39 39 38 38 39 39 40 39 38 41 44 45 46 45 45 44 43 42 42 41 42 42 42 42 42 42
1 4 6 1 2 2 2 3 7 7 4 1 1 3 2 2 1 1 2 2 4 8 7 8 11 11 7 3 5 9 8 9 11 11 10 10 16 25 29 31 33 31 31 32 31 30 30 28 24 22 21 20 21 24 25 25 23 26 33 38 40 41 41 40 40 40 40 40 39 42 45 45 47 47 47 46 44 43 42 42 42 42 42 42 42 42
1 3 6 1 1 5 6 6 8 11 10 7 6 6 5 6 3 5 7 5 4 6 6 8 9 11 8 1 3 7 6 7 9 9 10 11 18 27 32 37 40 39 38 35 31 30 27 24 23 22 21 21 23 26 28 26 25 28 33 36 39 42 43 42 41 40 40 40 40 43 46 47 48 49 49 47 45 44 42 43 43 43 42 42 42 42
4 3 4 5 4 7 8 5 6 9 7 4 4 6 6 6 6 8 10 7 5 5 6 8 9 12 10 2 2 6 6 7 9 10 9 10 17 27 35 39 37 36 37 32 27 25 21 20 23 24 22 22 25 27 28 26 27 31 33 34 37 42 44 43 42 41 41 40 40 43 46 48 48 48 49 48 46 45 43 43 44 43 43 42 42 42
4 3 5 7 4 4 7 6 4 3 2 1 4 6 8 9 10 11 8 5 7 7 7 9 9 10 10 6 4 6 6 8 12 15 13 14 23 31 36 34 30 30 29 25 22 21 19 22 26 25 23 25 28 31 31 30 31 33 34 34 36 40 42 42 41 41 42 42 41 43 46 48 48 48 48 48 47 45 44 44 44 44 43 42 41 42
3 3 4 6 5 4 6 8 8 5 2 3 6 8 11 13 12 8 5 3 7 11 13 11 10 9 11 9 5 6 6 5 8 12 12 12 18 24 26 25 25 26 25 21 20 20 22 25 26 26 27 31 33 35 35 34 33 36 37 36 36 38 39 40 41 41 42 42 41 42 45 47 48 48 47 47 47 46 45 45 45 44 43 42 42 42
3 5 4 5 8 8 8 9 8 5 3 3 6 10 13 14 13 9 5 5 8 13 14 12 11 11 10 12 14 15 13 10 11 15 17 16 17 17 16 18 20 22 23 24 25 26 25 26 27 29 32 34 34 35 36 36 36 39 40 38 37 37 38 39 40 41 42 41 41 42 43 45 47 47 47 47 48 47 46 46 45 44 43 42 41 41
2 5 8 11 13 12 13 14 8 2 3 4 5 9 10 10 12 10 6 8 10 10 11 12 15 15 11 13 20 22 21 19 18 17 17 20 25 27 27 27 28 30 33 34 32 29 27 28 31 34 35 34 34 34 35 37 40 41 41 39 38 38 39 40 40 41 42 41 41 42 42 44 45 46 46 47 48 47 46 46 45 44 43 42 41 41
2 6 14 18 21 20 20 22 17 10 10 11 9 10 10 8 9 9 10 13 11 8 11 14 16 15 13 15 22 26 26 25 20 15 16 21 26 30 32 31 32 37 38 33 28 26 28 31 34 36 37 35 34 35 37 39 41 41 41 40 40 39 40 41 41 42 42 41 42 42 42 42 43 45 45 46 47 47 46 46 45 44 43 41 41 41
3 9 16 18 22 24 23 25 23 18 16 15 14 15 16 14 11 12 16 18 15 12 14 15 16 17 16 17 22 25 25 24 21 21 24 26 28 32 33 28 29 36 35 27 25 29 33 36 37 36 37 36 36 38 39 39 40 41 41 41 41 41 41 41 41 42 42 42 42 41 41 41 42 44 45 46 47 47 46 46 45 44 42 41 40 41
5 9 14 18 21 21 22 22 21 20 18 16 17 19 19 19 18 19 21 21 20 20 19 20 23 23 20 19 22 25 28 29 27 27 29 31 36 39 35 31 33 38 33 28 32 38 39 40 40 38 37 38 40 40 40 40 40 40 41 41 41 41 42 42 42 42 42 42 42 41 41 41 42 44 44 46 46 46 46 45 45 44 42 41 40 41
7 10 11 13 13 13 17 19 18 20 20 19 21 20 20 22 23 24 23 19 18 21 23 25 26 23 20 22 24 26 29 29 27 27 31 37 42 39 33 34 36 36 36 37 40 43 42 40 40 39 39 41 42 41 40 40 39 39 40 39 40 41 41 42 43 43 42 42 41 41 41 41 42 43 44 45 45 46 46 45 45 44 42 41 41 41
6 9 8 7 8 10 14 18 21 22 22 21 21 21 22 24 23 22 20 18 19 22 25 25 21 17 18 21 21 20 22 23 22 25 30 37 43 37 31 31 30 30 36 40 38 38 38 37 38 39 40 41 42 41 38 36 35 36 37 37 38 40 41 42 43 43 42 42 41 41 41 41 41 42 43 44 45 46 46 45 45 44 43 42 41 41
5 5 6 6 8 9 13 18 20 18 15 14 16 21 26 26 24 23 21 22 24 22 20 18 17 17 17 16 15 17 19 20 22 26 31 37 40 36 30 28 28 30 37 37 35 35 35 35 38 40 41 42 42 40 36 32 32 33 34 35 37 38 40 41 41 41 41 41 41 40 40 40 40 40 42 44 45 45 45 45 45 45 43 42 41 41
5 7 8 6 6 8 13 15 13 11 10 10 13 22 27 27 28 27 25 27 29 25 20 18 17 18 16 13 15 19 21 25 32 37 39 36 33 31 31 33 34 35 36 35 34 35 35 36 39 42 42 42 42 40 35 31 30 30 30 32 34 35 37 38 38 39 40 40 39 39 39 39 39 40 42 43 44 45 46 46 45 44 42 42 41 42
7 8 8 6 6 7 9 10 11 10 10 9 12 19 25 28 31 31 30 31 30 26 25 24 22 20 19 19 21 23 27 37 43 42 39 37 35 34 37 42 42 39 37 36 37 37 37 39 42 43 41 40 41 40 36 32 30 28 28 31 32 33 34 35 36 37 37 37 38 38 39 38 38 40 42 43 44 45 45 45 44 43 42 42 42 42
12 10 7 6 7 6 6 9 12 8 2 1 5 11 17 21 23 25 25 27 28 26 24 24 24 23 23 24 26 30 36 38 36 35 35 32 28 26 26 29 33 32 30 30 33 35 37 39 41 40 39 39 41 39 35 32 30 28 28 29 31 32 32 33 34 35 36 36 37 38 37 37 38 40 42 43 44 45 45 45 44 43 42 42 41 42
16 13 8 6 7 7 8 11 12 12 7 3 5 8 12 15 17 18 19 20 21 21 22 22 23 23 20 18 21 30 33 26 18 19 20 23 29 29 29 28 28 29 28 25 24 24 27 30 33 35 37 39 40 37 33 32 30 28 27 28 29 30 31 33 34 34 34 35 36 36 36 37 38 40 41 43 44 45 45 45 44 43 42 42 42 42
16 14 12 9 7 8 11 9 9 12 12 9 11 13 16 18 19 17 15 12 6 8 10 10 9 11 11 11 15 18 15 11 7 5 16 32 33 30 32 32 31 31 32 32 31 27 25 25 26 28 29 30 32 33 33 31 29 27 26 28 28 29 31 33 33 33 33 34 34 35 36 36 38 40 41 43 44 44 44 44 43 42 41 41 42 42
14 14 13 9 5 7 10 9 8 11 9 6 8 9 11 15 14 10 10 6 6 15 17 15 14 14 14 14 18 14 7 4 3 6 23 36 34 31 33 35 35 35 34 34 34 33 31 28 26 25 23 22 23 25 26 26 25 26 26 27 28 29 31 31 31 31 32 33 34 36 36 37 38 40 41 42 43 43 44 43 42 41 40 41 41 42
9 9 9 8 7 9 11 8 8 8 2 8 11 13 14 9 3 3 6 2 7 14 18 19 15 14 16 17 17 12 7 6 7 15 30 37 34 34 34 34 38 39 37 36 36 35 34 31 27 27 27 26 24 22 22 22 21 22 24 25 26 28 29 30 30 30 32 34 35 36 37 38 39 40 41 42 42 43 42 41 40 40 40 41 42 44
4 5 6 8 10 14 14 11 9 4 3 10 13 17 21 13 2 2 5 5 7 13 17 18 15 16 18 17 13 9 9 13 18 26 34 35 35 38 38 36 38 39 38 38 37 37 37 35 33 31 30 29 26 24 24 23 20 20 21 23 25 26 27 29 31 33 34 36 37 37 38 39 40 41 41 41 42 42 41 41 40 40 40 41 43 45
4 4 4 4 8 11 12 12 11 4 5 12 14 18 21 11 1 3 11 12 9 14 19 19 17 19 21 18 15 15 19 24 27 30 33 35 36 38 38 38 39 39 40 41 40 40 39 38 37 36 33 32 29 26 25 24 23 22 21 22 24 25 26 27 30 32 34 36 37 38 39 39 40 41 42 42 42 42 41 41 41 40 40 41 44 46
5 5 5 5 5 5 7 9 9 4 6 15 15 13 13 7 6 12 13 10 11 18 23 21 20 21 22 22 24 24 25 27 27 28 31 35 36 37 37 36 36 36 37 38 39 40 40 38 38 37 34 33 32 28 25 24 25 24 23 23 23 22 23 26 28 30 32 35 36 38 39 40 40 41 42 42 43 42 42 42 42 42 42 42 45 47
5 4 4 4 3 3 4 5 2 2 5 10 8 3 5 10 17 18 10 7 15 22 23 23 25 27 24 23 27 28 27 27 27 27 29 31 33 35 36 35 35 34 34 34 34 35 36 36 37 37 34 32 32 29 25 24 25 26 27 26 24 23 24 25 26 27 29 32 34 36 38 39 40 41 41 42 42 42 42 42 42 43 43 44 46 48
4 4 4 5 5 3 4 7 10 11 9 7 6 11 17 21 19 14 10 15 20 23 22 22 25 27 25 23 24 25 25 26 28 28 27 28 30 32 33 34 36 36 36 36 36 36 35 35 36 36 35 33 31 28 27 26 25 26 28 27 27 28 29 27 26 26 27 29 32 33 35 37 39 40 41 42 42 43 44 44 44 44 45 46 48 49
9 11 8 5 6 7 7 12 14 13 15 21 22 19 19 18 13 9 14 18 18 18 18 18 19 22 23 23 23 25 26 28 30 31 30 30 30 31 33 36 38 39 39 40 40 40 39 38 38 38 38 37 34 31 30 29 28 28 28 27 26 28 29 29 29 28 28 28 30 31 33 35 38 40 41 42 42 43 44 44 44 46 47 49 50 49
7 10 9 6 8 10 9 9 10 14 21 28 27 19 11 10 8 10 12 12 12 14 15 16 19 22 24 24 24 27 30 31 31 33 34 34 35 35 36 36 37 39 39 39 40 41 40 40 40 40 40 40 40 37 34 33 32 31 30 28 26 26 27 29 30 31 31 30 31 32 34 36 38 39 40 42 43 44 45 46 46 47 50 52 53 51
7 8 8 8 8 9 10 11 17 23 25 26 28 22 10 5 9 13 13 12 14 17 18 18 20 22 24 25 25 26 30 32 31 32 35 37 37 37 37 37 37 38 39 38 38 39 39 39 40 40 40 41 42 41 39 37 35 33 31 30 29 28 28 29 30 32 33 33 34 36 37 38 38 39 41 43 45 46 48 48 48 49 51 53 54 53
10 10 8 7 9 11 11 11 14 17 18 21 24 17 7 10 17 18 17 16 17 18 20 20 22 23 25 28 29 27 29 32 33 32 34 36 38 38 37 37 38 38 39 39 39 38 38 39 40 40 41 42 42 42 43 42 39 35 33 32 32 31 31 31 31 32 35 36 37 38 40 40 41 41 43 44 46 48 49 48 48 50 51 51 50 48
9 8 7 7 8 9 8 9 11 10 10 16 18 8 3 11 19 18 17 18 18 19 21 21 24 27 27 28 30 29 30 33 34 33 33 35 37 38 39 40 41 41 41 41 40 39 39 40 40 40 42 43 43 43 44 44 43 40 37 35 35 34 34 34 33 34 36 38 40 40 41 43 44 44 45 45 47 48 49 48 48 48 48 47 46 43
12 10 9 9 8 10 14 17 17 11 7 14 19 11 6 12 16 16 17 17 17 19 21 22 25 28 28 28 29 30 31 33 35 34 34 36 38 39 40 41 42 43 45 44 43 43 43 42 40 40 41 43 43 43 43 44 43 42 40 39 38 37 37 36 36 37 38 39 41 42 43 45 46 46 46 47 48 49 50 50 49 47 45 45 43 40
Wind_Direction
179 178 168 198 227 223 210 204 218 233 234 244 254 255 251 253 262 259 265 245 183 192 217 218 234 239 247 252 248 255 260 261 252 243 244 247 249 252 254 256 258 258 263 269 269 266 265 262 257 252 247 245 243 241 240 239 237 236 235 235 235 236 237 237 234 232 230 229 229 229 231 232 234 235 237 238 239 239 240 240 240 239 239 240 240 241
181 190 211 213 227 229 215 211 223 236 240 249 250 259 260 251 263 259 258 257 188 196 241 229 243 249 246 254 254 251 253 255 251 244 245 247 249 252 255 258 260 261 264 267 267 266 264 260 254 248 243 240 239 238 237 237 236 235 235 236 237 236 237 237 237 236 235 235 235 235 236 237 237 239 240 242 242 242 242 241 240 239 239 239 240 241
212 221 224 221 230 241 237 219 221 232 232 243 246 256 263 252 272 266 247 256 192 192 248 242 247 253 251 255 258 251 238 244 250 248 249 251 251 254 257 260 261 263 264 264 264 264 262 258 251 243 240 238 238 238 238 237 235 234 235 235 236 236 237 238 238 238 239 239 239 240 241 241 241 241 243 244 244 244 243 242 241 240 239 239 240 241
233 230 224 223 227 237 247 235 227 247 242 239 242 249 259 251 269 268 245 252 224 208 249 260 259 256 260 266 261 251 244 244 250 252 254 256 256 256 259 261 263 263 263 263 262 260 258 252 245 239 238 236 235 235 235 234 234 234 235 235 235 235 237 237 238 239 239 239 239 239 240 240 241 243 243 242 242 241 241 240 240 240 240 239 240 240
243 229 206 211 217 226 242 240 225 248 256 244 231 228 249 249 246 253 267 298 288 280 279 284 287 270 231 249 257 250 247 247 250 253 256 257 257 258 259 261 262 262 262 261 260 256 252 247 242 238 236 234 232 233 234 234 234 235 235 235 235 236 237 237 238 238 237 236 235 235 235 235 236 237 238 237 237 237 237 239 240 240 240 238 239 239
251 236 204 202 217 223 234 241 212 209 252 258 224 211 235 244 245 253 278 317 317 296 275 201 282 277 201 222 247 251 251 249 244 246 249 253 255 257 258 259 261 262 261 260 258 254 251 246 240 235 234 233 233 234 235 236 236 237 236 235 235 236 236 237 237 237 236 235 234 234 233 233 233 234 235 237 238 239 240 241 241 240 240 238 238 238
242 224 204 201 216 217 225 244 213 196 237 269 228 207 225 236 248 257 267 284 263 263 271 130 228 277 245 213 236 239 240 249 245 238 242 247 251 254 256 257 260 262 262 260 257 252 248 243 236 233 233 234 235 236 235 236 236 236 236 235 235 236 236 236 236 235 235 235 235 236 238 239 240 241 243 244 244 244 245 245 244 242 241 239 238 238
212 207 198 211 220 215 222 242 215 184 214 266 233 195 211 226 242 246 232 226 234 266 289 122 137 282 280 232 207 214 221 241 249 245 246 244 246 252 253 254 259 263 265 263 255 246 242 240 236 236 237 237 237 235 233 233 233 233 234 234 234 235 236 235 235 235 235 235 235 237 239 242 245 247 249 249 247 247 247 246 245 243 242 240 239 238
179 184 203 207 208 214 222 230 192 169 205 251 190 167 179 200 218 184 191 225 280 336 281 196 135 279 280 247 188 208 215 229 244 242 244 239 240 248 250 251 258 265 267 264 253 245 242 240 239 240 240 240 238 234 232 232 232 232 232 233 233 233 234 234 235 235 235 235 236 238 241 243 247 248 248 248 248 247 247 246 245 243 241 240 238 237
228 181 193 169 179 218 218 213 170 176 220 229 118 91 73 70 53 81 140 167 41 309 251 193 154 210 276 270 179 176 202 215 232 236 238 234 234 242 246 250 258 264 265 261 252 247 243 241 240 240 240 238 236 233 232 231 231 231 230 230 231 230 231 232 233 235 235 234 235 237 241 244 247 247 246 246 245 245 245 245 244 243 241 239 237 236
246 112 112 162 191 198 145 98 103 167 220 115 93 55 30 13 22 47 14 73 50 276 230 182 179 186 269 286 157 159 199 200 209 224 240 242 236 239 244 250 257 260 262 259 252 243 235 235 237 237 238 236 233 231 229 229 229 229 229 229 229 229 229 230 232 234 234 232 232 235 240 243 246 248 247 246 245 244 244 243 243 242 240 239 237 236
251 202 216 204 182 140 108 98 7 15 59 94 92 76 24 329 8 25 355 58 222 264 214 182 187 187 234 274 136 219 232 191 201 209 223 237 237 239 242 247 254 256 257 257 251 237 222 222 228 230 233 232 229 227 225 226 226 226 227 228 228 228 228 229 231 233 233 231 230 232 238 242 244 248 250 249 248 247 246 245 243 242 240 238 236 235
258 231 205 178 183 171 144 102 348 346 36 108 106 108 58 298 342 356 306 205 224 253 229 194 186 202 239 253 234 270 277 207 207 205 214 222 231 238 237 240 253 256 253 252 247 234 217 217 223 224 228 227 224 223 222 222 224 224 225 226 227 226 226 228 229 231 232 231 228 228 234 239 241 245 251 252 251 249 249 247 245 243 241 239 237 236
285 275 186 149 253 190 165 173 233 272 184 167 148 148 178 212 245 267 254 263 262 263 253 202 178 239 275 274 220 234 241 224 210 210 220 221 228 237 231 233 255 258 249 246 243 233 222 221 226 226 228 226 222 221 220 221 223 223 224 225 225 225 226 228 229 230 232 231 228 228 231 236 239 242 248 252 252 250 249 248 247 247 246 244 243 241
250 292 193 162 220 182 177 206 210 168 152 181 152 143 177 176 185 225 241 256 276 287 275 189 163 223 274 269 217 218 237 234 217 217 222 223 230 238 229 230 252 256 245 241 237 233 229 229 231 230 230 228 224 222 221 222 224 224 226 227 226 225 226 228 229 231 232 231 229 229 231 234 239 242 245 249 251 251 250 250 249 248 248 247 247 245
220 272 222 167 148 160 179 219 198 127 81 213 124 118 210 198 194 232 265 249 244 310 285 207 202 233 234 259 244 235 260 252 222 221 223 225 232 237 232 233 244 249 239 233 229 229 231 229 230 231 231 230 226 224 225 226 226 227 231 232 230 229 228 229 231 232 234 234 232 232 232 233 237 241 243 246 249 251 251 250 250 249 249 248 247 245
231 276 247 138 33 151 178 245 176 153 203 189 121 180 213 167 166 222 286 303 93 275 275 222 234 279 307 278 251 234 248 246 230 227 223 227 231 233 234 235 239 238 231 228 227 230 231 228 229 232 232 228 224 226 230 230 230 233 238 238 235 233 232 232 233 236 237 236 236 236 234 234 236 240 243 246 248 250 250 249 249 249 248 247 246 244
237 272 257 175 236 262 37 46 13 351 129 129 174 220 204 77 107 159 235 326 312 259 269 262 260 280 297 281 292 349 260 250 244 236 223 228 229 229 234 235 234 230 228 228 228 230 231 229 230 235 235 228 226 234 237 236 236 239 245 244 239 236 235 235 236 238 239 239 240 241 239 236 236 239 243 246 247 248 248 248 248 247 246 245 244 242
237 258 267 179 204 303 18 82 310 347 98 135 204 233 107 147 238 157 166 231 252 252 268 277 277 275 255 260 287 282 244 232 231 230 227 230 230 231 235 236 233 226 225 228 229 231 232 230 233 241 238 228 232 242 241 239 241 247 252 250 243 240 240 239 239 240 242 242 244 246 244 241 239 239 242 245 246 247 247 248 248 246 245 243 242 240
226 237 258 22 7 312 9 121 201 252 344 69 5 341 35 179 187 183 178 168 227 249 265 276 284 280 246 237 259 246 230 222 222 225 229 229 232 235 235 236 238 232 231 234 235 237 236 234 240 247 242 237 246 250 241 237 247 261 265 256 247 244 242 241 241 242 244 245 246 248 247 245 242 240 241 244 245 247 248 248 248 246 245 243 241 240
243 250 251 338 360 265 230 197 178 185 204 186 233 262 273 237 181 251 242 161 220 244 253 260 271 276 260 219 240 243 231 224 216 216 229 228 231 239 237 235 237 238 240 242 241 243 242 242 246 245 240 244 253 249 238 238 254 270 270 261 254 249 244 243 243 244 247 247 248 250 248 247 245 242 241 242 245 247 248 248 248 246 245 243 241 240
170 237 245 253 279 240 244 228 192 194 192 178 195 207 210 218 232 270 255 219 218 238 242 249 257 267 270 221 228 241 228 227 215 209 228 224 227 239 239 235 234 234 237 241 243 246 247 248 248 242 241 250 254 244 235 241 258 271 272 269 261 253 248 248 247 248 250 251 252 254 250 246 246 244 242 242 244 247 248 248 247 245 243 241 240 240
171 175 244 248 229 240 257 249 211 219 207 171 203 206 202 206 205 237 245 236 239 236 235 250 251 257 266 277 250 245 220 222 219 209 221 238 245 246 242 240 238 234 237 244 247 245 247 255 252 242 244 260 262 247 237 246 264 272 275 273 266 258 254 253 253 252 251 252 255 256 251 246 246 245 244 243 244 247 248 248 247 244 242 241 240 239
170 164 232 249 268 293 296 298 276 234 156 199 254 216 209 220 215 224 237 237 250 244 234 250 251 254 263 261 274 276 245 229 224 214 217 238 246 242 239 242 244 239 241 249 248 246 257 264 253 243 251 268 269 256 245 250 266 273 273 270 268 266 262 257 256 254 252 253 255 256 252 248 246 246 245 244 245 247 248 248 246 244 242 240 239 238
213 204 210 234 261 289 303 298 282 263 182 216 243 225 222 229 225 231 243 225 244 243 238 249 253 249 256 260 283 306 291 270 255 250 255 259 252 243 239 241 242 239 240 241 245 255 264 261 252 252 263 269 267 261 254 255 266 273 271 268 270 272 267 260 256 255 254 254 254 255 254 251 247 247 247 246 245 246 247 247 245 243 241 239 238 237
234 220 203 222 236 235 235 241 244 242 221 214 238 234 227 221 214 219 234 228 234 236 233 242 251 250 263 282 288 288 283 281 281 283 291 298 295 289 275 260 255 255 256 258 264 268 265 261 260 262 266 265 262 261 259 262 270 273 270 267 269 271 267 261 258 256 255 254 254 255 255 252 249 248 249 246 244 245 246 246 244 242 240 239 238 236
210 212 216 223 228 232 234 236 234 213 200 212 235 237 230 222 218 217 225 232 236 241 235 238 248 254 265 280 281 280 278 274 269 270 276 278 280 283 282 277 274 271 268 267 266 265 263 265 268 268 266 264 262 262 264 269 273 273 270 266 267 268 265 260 258 257 255 255 255 255 255 254 252 250 249 246 244 245 245 245 244 242 240 239 237 236
181 216 219 224 229 231 236 242 247 251 245 241 245 249 247 238 222 217 228 234 235 246 247 240 245 253 253 254 263 268 270 269 267 265 266 264 266 270 272 270 267 264 262 260 261 263 266 269 269 267 264 260 260 263 267 272 273 271 269 267 266 265 262 259 257 256 256 255 255 255 256 256 254 251 249 246 244 244 245 244 243 242 240 238 237 236
217 235 223 225 230 229 233 240 244 248 250 248 251 256 256 250 235 226 234 238 235 239 250 251 250 252 250 246 253 260 265 269 271 271 271 270 268 267 266 261 256 257 258 260 267 271 272 272 268 261 256 258 263 267 271 274 271 267 266 265 265 263 262 260 257 255 256 255 255 257 258 256 253 250 247 244 243 243 243 243 242 240 238 237 236 235
207 235 223 227 235 231 231 236 240 244 249 250 250 250 253 255 249 241 241 243 243 245 251 256 255 253 252 251 252 255 262 270 276 278 276 272 268 265 263 259 257 261 264 267 271 272 271 270 266 260 259 263 268 270 272 272 268 264 263 263 264 263 263 261 258 257 256 256 257 257 255 253 250 247 244 242 242 242 242 242 240 238 237 236 235 234
205 229 221 224 240 238 233 236 237 239 241 243 245 246 250 253 253 251 250 250 252 254 252 251 252 253 252 252 253 256 263 271 279 279 273 269 268 267 265 263 263 267 271 270 268 268 266 263 261 261 265 268 270 271 273 270 266 264 265 265 264 264 264 262 260 258 257 257 256 254 251 250 247 245 243 242 242 242 242 240 239 237 236 234 233 231
208 236 230 229 246 237 228 234 236 236 238 239 242 245 246 247 248 249 249 246 246 250 252 250 250 251 248 250 254 259 264 268 270 271 271 270 271 270 268 267 268 270 268 265 263 264 263 261 261 263 265 268 271 273 271 268 265 265 267 268 267 266 264 262 260 258 256 255 252 250 248 247 245 244 243 243 242 242 240 239 237 236 234 233 231 230
203 232 230 226 246 240 228 233 236 236 238 237 232 234 238 242 247 247 247 246 243 244 249 249 246 249 251 253 258 260 260 259 257 258 261 266 270 272 273 273 271 267 265 264 264 264 262 261 264 267 268 271 275 276 271 266 264 267 270 269 268 265 262 260 258 256 254 252 249 248 247 246 244 244 243 243 242 240 238 237 236 235 234 232 230 229
210 228 232 226 244 245 233 235 239 233 232 228 213 216 226 235 241 243 243 242 240 239 243 247 250 256 258 252 249 249 250 252 252 253 257 263 273 279 280 277 272 269 269 268 266 264 263 264 267 271 273 276 279 278 272 265 264 268 269 266 263 261 258 256 254 252 251 249 248 247 246 244 244 244 243 242 240 238 237 236 235 234 233 231 229 228
227 229 232 234 247 248 235 236 242 234 228 230 216 210 218 228 234 240 243 243 244 245 247 250 252 251 251 250 246 245 248 251 255 260 265 270 276 280 280 280 280 280 278 276 272 269 267 269 273 275 277 282 285 280 270 264 265 267 264 260 258 257 255 252 251 249 248 247 247 245 244 244 244 243 242 240 238 237 236 234 233 232 231 229 229 227
233 233 232 231 236 245 238 227 238 253 254 222 213 207 216 227 234 242 249 249 250 248 246 249 250 244 244 247 248 250 254 257 262 267 273 285 302 314 315 309 307 307 303 296 290 285 282 282 283 284 286 289 288 281 271 266 268 267 262 258 256 255 254 251 248 247 246 245 245 245 244 244 244 242 241 239 237 235 234 233 232 231 230 229 228 226
225 229 232 234 224 232 246 238 247 270 278 242 217 206 209 219 223 232 244 249 250 250 251 250 252 256 258 258 264 266 265 269 272 270 294 338 0 3 0 357 353 351 350 345 333 318 308 304 300 297 296 294 291 285 278 273 272 268 259 253 252 251 250 248 246 246 246 246 246 246 246 245 244 243 241 239 237 236 234 233 231 231 230 228 226 224
224 224 224 232 218 218 241 248 249 259 256 241 231 218 213 219 219 222 238 252 290 331 316 291 289 310 322 331 327 309 287 279 268 283 351 360 0 356 353 353 354 356 358 360 360 357 349 339 327 316 307 301 298 293 285 278 275 270 257 251 250 248 246 245 245 246 245 246 247 247 246 245 244 243 241 239 238 237 235 233 232 231 231 229 227 224
240 236 232 238 231 223 238 243 242 250 262 291 280 256 241 235 232 239 250 263 12 22 22 26 27 22 18 7 357 360 12 347 292 330 345 343 340 343 343 340 341 345 347 349 353 357 359 359 356 351 342 333 322 309 297 288 282 273 262 254 251 248 246 247 247 247 247 246 246 246 245 244 243 242 242 241 239 238 235 234 232 231 230 228 227 224
251 244 241 246 247 242 244 249 251 246 304 4 340 323 318 302 267 269 265 280 27 18 21 28 25 20 17 8 4 16 27 0 321 318 326 327 327 331 332 332 336 339 339 341 343 345 347 349 353 355 353 349 345 336 324 311 295 280 270 263 259 256 257 257 254 251 249 246 246 245 243 243 242 242 241 241 239 237 235 233 231 229 227 226 224 222
282 262 247 244 249 248 244 251 260 243 37 6 345 340 340 338 76 130 291 319 11 10 10 13 10 5 5 3 4 359 328 316 309 308 316 321 322 324 329 332 334 335 336 338 338 339 340 340 339 340 341 340 341 341 336 328 313 298 284 275 273 273 273 270 262 256 252 248 246 245 243 243 242 241 241 240 237 235 233 231 230 227 225 223 221 219
320 299 269 265 273 263 248 253 258 234 53 13 357 3 6 359 226 302 315 313 339 359 355 353 353 353 349 344 339 324 312 313 314 313 318 321 321 324 327 330 333 335 335 335 334 335 337 336 334 334 334 332 330 330 332 329 322 313 299 289 290 290 284 277 270 263 257 252 249 246 244 243 242 240 238 237 235 233 231 228 227 225 223 221 218 217
306 298 294 289 288 284 272 266 252 230 27 15 3 10 30 30 286 298 309 312 338 349 342 336 339 343 339 331 325 319 314 316 317 319 321 322 324 326 327 329 332 334 334 334 333 334 335 333 330 330 329 327 324 324 327 326 322 316 307 302 304 300 288 282 278 271 263 257 252 249 246 244 242 240 238 236 234 232 229 227 225 222 221 219 216 215
271 272 282 295 316 324 293 289 299 300 349 20 29 356 330 310 289 284 292 322 335 337 335 329 329 331 331 326 320 317 317 318 321 323 325 325 327 329 330 332 333 333 333 333 331 333 335 332 328 326 325 324 322 321 320 320 318 313 309 310 309 301 293 287 282 277 270 263 256 252 248 246 243 241 239 236 234 231 228 227 224 221 219 217 215 214
293 297 255 253 280 289 258 279 304 310 305 314 317 304 307 306 291 282 313 332 328 327 329 325 325 330 335 336 328 322 319 322 325 327 328 328 329 329 330 330 329 328 328 326 326 327 329 327 324 322 320 320 319 316 313 313 309 301 301 306 304 298 296 291 284 282 277 269 261 255 252 249 245 243 241 238 235 232 229 226 223 220 217 214 212 213
310 305 285 265 288 296 275 266 280 301 306 301 304 311 311 303 295 310 332 330 325 327 330 331 332 334 337 338 335 327 323 324 326 325 326 326 324 322 322 321 320 321 322 321 322 322 321 320 318 316 314 314 314 312 309 309 305 297 296 300 298 296 296 292 286 284 279 271 265 260 256 252 247 243 240 237 234 232 231 228 224 220 216 212 211 211
291 294 291 295 300 295 288 281 289 305 304 300 306 316 306 286 310 347 345 335 336 341 341 338 334 330 329 332 331 326 322 322 323 322 322 322 319 317 317 317 317 318 319 319 319 318 318 317 315 313 312 310 308 308 306 303 301 298 296 293 288 286 288 286 281 280 278 273 268 263 259 255 249 244 241 237 233 231 229 227 225 221 216 212 209 208
290 309 304 290 283 279 285 298 299 295 293 298 309 319 325 351 353 344 333 329 332 333 332 332 330 329 328 327 326 322 319 319 320 319 318 316 315 314 314 314 315 315 315 316 317 316 316 315 312 310 309 306 304 304 303 299 297 296 294 290 284 279 279 278 275 275 276 273 267 262 257 252 247 244 241 237 233 229 226 224 222 220 218 215 212 210
283 297 288 275 284 287 286 289 288 286 291 302 309 315 343 348 331 323 322 327 329 328 329 329 328 328 326 323 322 321 317 315 316 316 314 312 311 311 312 312 313 314 314 314 314 314 312 311 309 306 304 302 301 300 299 296 293 292 290 287 284 278 274 272 269 269 270 268 264 259 253 247 243 240 238 234 230 227 225 223 221 219 218 216 215 215
267 272 269 271 281 282 276 279 287 292 298 302 304 316 5 321 312 312 321 327 328 328 328 325 322 321 319 318 319 319 316 314 315 314 312 310 310 310 312 313 313 313 312 311 311 310 308 307 307 305 302 301 299 297 295 294 293 291 288 284 281 278 274 270 266 264 263 261 258 255 251 246 242 238 235 232 229 225 221 219 219 218 217 215 215 215
245 247 252 256 261 262 265 275 284 288 281 285 293 303 320 311 308 312 319 322 322 321 320 317 316 316 314 314 315 316 314 314 314 314 312 310 310 312 313 314 313 312 311 310 309 308 307 307 306 304 302 300 298 295 293 292 292 291 289 285 281 278 275 270 265 261 259 257 256 255 251 246 241 237 234 230 227 224 218 213 210 210 211 212 213 212